,

(GMT )
Al Udeid

Weather History for KQIR - December, 2013

Change the Weather History Date:

Tuesday, December 17, 2013

  Actual Average Record
Temperature  
Mean Temperature 61 °F -  
Max Temperature 68 °F - - ()
Min Temperature 54 °F - - ()
Degree Days  
Heating Degree Days 4    
Growing Degree Days 11 (Base 50)    
Moisture  
Dew Point 48 °F    
Average Humidity 63    
Maximum Humidity 77    
Minimum Humidity 46    
Precipitation  
Precipitation 0.00 in - - ()
Sea Level Pressure  
Sea Level Pressure 30.17 in    
Wind  
Wind Speed 13 mph ()    
Max Wind Speed 21 mph    
Max Gust Speed -    
Visibility 6.2 miles    
Events Rain    
Averages and records for this station are not official NWS values.
T = Trace of Precipitation, MM = Missing Value Source: Averaged Metar Reports

Daily Weather History Graph

Daily Weather History Graph

Search for Another Location

Airport or City:

Trip Planner

Search our weather history database for the weather conditions in past years. The results will help you decide how hot, cold, wet, or windy it might be!

Date:

Astronomy

Dec. 17, 2013 Rise Set
Actual Time 6:13 AM +03 4:48 PM +03
Civil Twilight 5:48 AM +03 5:13 PM +03
Nautical Twilight 5:19 AM +03 5:41 PM +03
Astronomical Twilight 4:51 AM +03 6:09 PM +03
Moon 5:02 PM +03 (12/17) 5:56 AM +03 (12/17)
Length of Visible Light 11h 24m
Length of Day
10h 34m
Full, 100% of the Moon is Illuminated
Dec 17
Full
Dec 17
Full
Dec 25
Last Quarter
Jan 1
New
Jan 8
First Quarter

Hourly Weather History & Observations

Time (+03) Temp. Dew Point Humidity Pressure Visibility Wind Dir Wind Speed Gust Speed Precip Events Conditions
12:58 AM 55.6 °F 42.1 °F 60% 30.17 in 6.2 mi NW 13.8 mph - N/A   Clear
1:58 AM 55.0 °F 43.7 °F 66% 30.16 in 6.2 mi NW 10.4 mph - N/A   Clear
2:58 AM 54.9 °F 44.2 °F 67% 30.16 in 6.2 mi WNW 13.8 mph - N/A   Mostly Cloudy
3:58 AM 56.5 °F 45.9 °F 68% 30.16 in 6.2 mi NW 15.0 mph - N/A   Mostly Cloudy
4:58 AM 55.6 °F 45.7 °F 69% 30.16 in 6.2 mi NW 11.5 mph - N/A   Clear
5:58 AM 55.8 °F 45.5 °F 68% 30.18 in 6.2 mi NW 12.7 mph - N/A   Scattered Clouds
6:58 AM 56.8 °F 45.0 °F 64% 30.20 in 6.2 mi NW 15.0 mph - N/A   Scattered Clouds
7:58 AM 57.7 °F 46.2 °F 65% 30.22 in 6.2 mi NW 17.3 mph - N/A   Scattered Clouds
8:58 AM 59.9 °F 47.5 °F 64% 30.22 in 6.2 mi NW 17.3 mph - N/A   Scattered Clouds
9:58 AM 61.7 °F 48.7 °F 62% 30.21 in 6.2 mi NW 19.6 mph - N/A   Clear
10:27 AM 62.6 °F 50.0 °F 63% 30.19 in 6.2 mi NW 18.4 mph - N/A Rain Light Rain
10:29 AM 62.6 °F 50.0 °F 63% 30.19 in 6.2 mi NW 19.6 mph - N/A   Partly Cloudy
10:55 AM 64.4 °F 50.0 °F 59% 30.19 in 6.2 mi NNW 19.6 mph - N/A   Partly Cloudy
11:58 AM 67.1 °F 50.2 °F 55% 30.16 in 6.2 mi NW 18.4 mph - N/A   Clear
12:58 PM 68.2 °F 47.7 °F 48% 30.14 in 6.2 mi NNW 20.7 mph - N/A   Clear
1:58 PM 68.4 °F 47.5 °F 47% 30.14 in 6.2 mi NNW 18.4 mph - N/A   Clear
2:58 PM 67.3 °F 45.7 °F 46% 30.14 in 6.2 mi NNW 18.4 mph - N/A   Clear
3:58 PM 65.7 °F 48.9 °F 55% 30.14 in 6.2 mi NNW 17.3 mph - N/A   Clear
4:58 PM 64.0 °F 47.8 °F 56% 30.16 in 6.2 mi NNW 15.0 mph - N/A   Clear
5:58 PM 62.4 °F 49.8 °F 63% 30.17 in 6.2 mi NNW 12.7 mph - N/A   Clear
6:58 PM 61.3 °F 50.4 °F 67% 30.18 in 6.2 mi NW 9.2 mph - N/A   Clear
7:58 PM 60.4 °F 50.0 °F 68% 30.18 in 6.2 mi NW 9.2 mph - N/A   Clear
8:58 PM 59.5 °F 50.5 °F 72% 30.19 in 6.2 mi NW 8.1 mph - N/A   Clear
9:58 PM 59.0 °F 51.4 °F 76% 30.18 in 6.2 mi NW 11.5 mph - N/A   Clear
10:58 PM 58.6 °F 51.6 °F 77% 30.18 in 6.2 mi NW 10.4 mph - N/A   Clear
11:58 PM 58.3 °F 50.9 °F 76% 30.17 in 6.2 mi NW 11.5 mph - N/A   Clear